Date String (YYYY-MM-DD hh:mm:ss) UTC,Instrument flags,Ambient pressure (hPa),Sample flow (lpm),Bypass flow (lpm),Sample temperature (°C),Ambient temperature (°C),ASC tube jacket temperature (°C),LED temperature (°C),Box temperature (°C),Sample RH (%),Span deviation,Mass concentration (μg/m³),Mass concentration (μg/m³),Mass concentration (μg/m³)
DateTimeUTC,F1_M11,P_M11,Q1_M11,Q2_M11,T1_M11,T2_M11,T3_M11,T4_M11,T5_M11,U1_M11,ZSPAN_M11,X0_M11,X2_M11,X1_M11
2022-10-19 04:00:00,,0833.3,4.99,0.00,29.5,27.8,00.0,38.5,31.2,10.8,0000.0,0011.62,0003.70,0003.00
2022-10-19 04:01:00,,0833.3,5.01,0.00,29.5,27.8,00.0,38.5,31.2,10.8,0000.0,0011.08,0003.73,0003.00
2022-10-19 04:02:00,,0833.3,5.01,0.00,29.5,27.8,00.0,38.4,31.2,10.8,0000.0,0011.02,0003.74,0003.00
2022-10-19 04:03:00,,0833.3,4.99,0.00,29.5,27.8,00.0,38.4,31.2,10.8,0000.0,0010.68,0003.73,0003.00
2022-10-19 04:04:00,,0833.3,5.00,0.00,29.5,27.8,00.0,38.4,31.3,10.8,0000.0,0010.59,0003.72,0002.98
2022-10-19 04:05:00,,0833.3,5.01,0.00,29.5,27.8,00.0,38.4,31.2,10.9,0000.0,0009.63,0003.72,0002.97
2022-10-19 04:06:00,,0833.3,5.01,0.00,29.5,27.8,00.0,38.4,31.3,10.8,0000.0,0009.40,0003.73,0002.98
2022-10-19 04:07:00,,0833.3,5.01,0.00,29.5,27.8,00.0,38.4,31.2,10.8,0000.0,0009.32,0003.74,0002.98
2022-10-19 04:08:00,,0833.4,4.98,0.00,29.5,27.8,00.0,38.4,31.1,10.8,0000.0,0009.07,0003.76,0002.99
2022-10-19 04:09:00,,0833.4,5.00,0.00,29.5,27.8,00.0,38.4,31.1,10.8,0000.0,0008.98,0003.71,0002.98
2022-10-19 04:10:00,,0833.4,5.00,0.00,29.4,27.7,00.0,38.4,31.1,10.8,0000.0,0009.16,0003.68,0002.97
2022-10-19 04:11:00,,0833.4,4.99,0.00,29.4,27.8,00.0,38.4,31.1,10.8,0000.0,0009.09,0003.66,0002.99
2022-10-19 04:12:00,,0833.4,5.00,0.00,29.4,27.7,00.0,38.4,31.1,10.8,0000.0,0008.90,0003.62,0003.00
2022-10-19 04:13:00,,0833.4,5.00,0.00,29.4,27.7,00.0,38.3,31.1,10.8,0000.0,0009.64,0003.63,0003.00
2022-10-19 04:14:00,,0833.4,5.01,0.00,29.4,27.7,00.0,38.3,31.1,10.8,0000.0,0009.94,0003.63,0003.02
2022-10-19 04:15:00,,0833.4,5.00,0.00,29.4,27.7,00.0,38.3,31.1,10.8,0000.0,0009.56,0003.62,0003.04
2022-10-19 04:16:00,,0833.3,5.00,0.00,29.4,27.7,00.0,38.3,31.1,10.9,0000.0,0009.49,0003.65,0003.07
2022-10-19 04:17:00,,0833.3,5.00,0.00,29.4,27.7,00.0,38.3,31.0,10.9,0000.0,0009.50,0003.63,0003.09
2022-10-19 04:18:00,,0833.3,5.00,0.00,29.4,27.7,00.0,38.3,31.1,10.8,0000.0,0009.56,0003.62,0003.11
2022-10-19 04:19:00,,0833.3,5.00,0.00,29.4,27.7,00.0,38.3,31.1,10.8,0000.0,0009.38,0003.60,0003.10
2022-10-19 04:20:00,,0833.3,5.00,0.00,29.4,27.7,00.0,38.3,31.1,10.9,0000.0,0009.09,0003.61,0003.12
2022-10-19 04:21:00,,0833.3,5.00,0.00,29.3,27.7,00.0,38.3,31.0,10.9,0000.0,0009.06,0003.61,0003.12
2022-10-19 04:22:00,,0833.3,5.00,0.00,29.3,27.7,00.0,38.3,31.0,10.9,0000.0,0008.94,0003.62,0003.12
2022-10-19 04:23:00,,0833.3,5.01,0.00,29.3,27.7,00.0,38.3,31.0,10.9,0000.0,0009.49,0003.63,0003.11
2022-10-19 04:24:00,,0833.3,5.00,0.00,29.3,27.6,00.0,38.3,31.0,10.9,0000.0,0009.42,0003.61,0003.11
2022-10-19 04:25:00,,0833.3,4.99,0.00,29.3,27.6,00.0,38.2,31.0,10.9,0000.0,0008.60,0003.57,0003.11
2022-10-19 04:26:00,,0833.3,5.00,0.00,29.3,27.6,00.0,38.2,31.0,10.9,0000.0,0008.96,0003.55,0003.08
2022-10-19 04:27:00,,0833.3,5.01,0.00,29.3,27.6,00.0,38.2,31.0,10.9,0000.0,0009.29,0003.54,0003.07
2022-10-19 04:28:00,,0833.3,5.00,0.00,29.3,27.6,00.0,38.2,31.0,10.9,0000.0,0009.27,0003.54,0003.06
2022-10-19 04:29:00,,0833.3,5.00,0.00,29.3,27.6,00.0,38.2,31.0,10.9,0000.0,0009.64,0003.57,0003.06
2022-10-19 04:30:00,,0833.3,4.98,0.00,29.3,27.6,00.0,38.2,31.0,10.9,0000.0,0010.18,0003.59,0003.05
2022-10-19 04:31:00,,0833.3,5.00,0.00,29.3,27.6,00.0,38.2,31.0,10.8,0000.0,0010.34,0003.59,0003.04
2022-10-19 04:32:00,,0833.3,5.00,0.00,29.3,27.6,00.0,38.2,31.0,10.8,0000.0,0010.58,0003.60,0003.04
2022-10-19 04:33:00,,0833.3,5.00,0.00,29.3,27.6,00.0,38.2,31.0,10.8,0000.0,0010.80,0003.57,0003.04
2022-10-19 04:34:00,,0833.3,5.00,0.00,29.2,27.6,00.0,38.2,31.0,10.8,0000.0,0010.57,0003.58,0003.04
2022-10-19 04:35:00,,0833.3,4.98,0.00,29.2,27.6,00.0,38.2,30.9,10.9,0000.0,0010.42,0003.60,0003.04
2022-10-19 04:36:00,,0833.3,5.01,0.00,29.2,27.6,00.0,38.2,30.9,10.9,0000.0,0010.41,0003.62,0003.05
2022-10-19 04:37:00,,0833.3,5.00,0.00,29.2,27.5,00.0,38.2,30.9,10.9,0000.0,0010.28,0003.64,0003.05
2022-10-19 04:38:00,,0833.3,5.00,0.00,29.2,27.5,00.0,38.1,30.9,10.9,0000.0,0009.62,0003.62,0003.06
2022-10-19 04:39:00,,0833.3,5.01,0.00,29.2,27.6,00.0,38.1,30.9,10.9,0000.0,0009.59,0003.64,0003.05
2022-10-19 04:40:00,,0833.3,4.98,0.00,29.2,27.5,00.0,38.1,30.9,10.9,0000.0,0009.30,0003.64,0003.03
2022-10-19 04:41:00,,0833.3,5.01,0.00,29.2,27.5,00.0,38.1,30.9,10.9,0000.0,0008.74,0003.64,0003.03
2022-10-19 04:42:00,,0833.3,5.00,0.00,29.2,27.5,00.0,38.1,30.9,10.9,0000.0,0008.87,0003.65,0003.03
2022-10-19 04:43:00,,0833.3,5.00,0.00,29.2,27.5,00.0,38.1,30.9,10.9,0000.0,0008.64,0003.65,0003.03
2022-10-19 04:44:00,,0833.3,5.00,0.00,29.2,27.5,00.0,38.1,30.9,10.8,0000.0,0008.17,0003.65,0003.02
2022-10-19 04:45:00,,0833.3,4.99,0.00,29.2,27.5,00.0,38.1,30.9,10.8,0000.0,0008.20,0003.66,0003.01
2022-10-19 04:46:00,,0833.3,5.00,0.00,29.1,27.5,00.0,38.1,30.9,10.8,0000.0,0008.01,0003.64,0003.00
2022-10-19 04:47:00,,0833.2,5.00,0.00,29.1,27.4,00.0,38.1,30.8,10.8,0000.0,0008.96,0003.66,0003.02
2022-10-19 04:48:00,,0833.2,5.00,0.00,29.1,27.4,00.0,38.1,30.8,10.8,0000.0,0009.03,0003.67,0003.02
2022-10-19 04:49:00,,0833.2,5.00,0.00,29.1,27.4,00.0,38.1,30.8,10.8,0000.0,0009.87,0003.70,0003.02
2022-10-19 04:50:00,,0833.1,4.99,0.00,29.1,27.4,00.0,38.0,30.9,10.8,0000.0,0010.47,0003.72,0003.02
2022-10-19 04:51:00,,0833.2,4.99,0.00,29.1,27.4,00.0,38.0,30.7,10.8,0000.0,0010.59,0003.70,0003.02
2022-10-19 04:52:00,,0833.2,5.00,0.00,29.1,27.4,00.0,38.0,30.7,10.8,0000.0,0010.79,0003.68,0003.02
2022-10-19 04:53:00,,0833.2,5.01,0.00,29.1,27.4,00.0,38.0,30.8,10.8,0000.0,0010.52,0003.64,0003.02
2022-10-19 04:54:00,,0833.2,5.01,0.00,29.1,27.4,00.0,38.0,30.8,10.8,0000.0,0010.16,0003.65,0003.03
2022-10-19 04:55:00,,0833.2,5.00,0.00,29.1,27.4,00.0,38.0,30.8,10.8,0000.0,0010.28,0003.65,0003.02
2022-10-19 04:56:00,,0833.2,5.01,0.00,29.1,27.3,00.0,38.0,30.8,10.8,0000.0,0010.08,0003.65,0003.02
2022-10-19 04:57:00,,0833.2,5.00,0.00,29.0,27.3,00.0,38.0,30.8,10.8,0000.0,0010.08,0003.66,0003.02
2022-10-19 04:58:00,,0833.2,5.00,0.00,29.0,27.4,00.0,38.0,30.8,10.8,0000.0,0009.40,0003.67,0003.00
2022-10-19 04:59:00,,0833.2,5.00,0.00,29.0,27.3,00.0,38.0,30.7,10.9,0000.0,0009.40,0003.65,0002.99
